Date String (YYYY-MM-DD hh:mm:ss) UTC,Instrument flags,Ambient pressure (hPa),Sample flow (lpm),Bypass flow (lpm),Sample temperature (°C),Ambient temperature (°C),ASC tube jacket temperature (°C),LED temperature (°C),Box temperature (°C),Sample RH (%),Span deviation,Mass concentration (μg/m³),Mass concentration (μg/m³),Mass concentration (μg/m³)
DateTimeUTC,F1_M11,P_M11,Q1_M11,Q2_M11,T1_M11,T2_M11,T3_M11,T4_M11,T5_M11,U1_M11,ZSPAN_M11,X0_M11,X2_M11,X1_M11
2022-08-01 13:00:00,,0829.3,5.00,0.00,29.9,28.7,00.0,38.7,31.8,24.0,0000.0,0009.43,0006.06,0005.75
2022-08-01 13:01:00,,0829.2,5.00,0.00,29.9,28.8,00.0,38.7,31.8,24.0,0000.0,0009.45,0006.05,0005.75
2022-08-01 13:02:00,,0829.3,4.99,0.00,29.9,28.8,00.0,38.7,31.8,23.9,0000.0,0009.40,0006.04,0005.75
2022-08-01 13:03:00,,0829.3,5.00,0.00,30.0,28.9,00.0,38.8,31.9,23.9,0000.0,0009.51,0006.06,0005.75
2022-08-01 13:04:00,,0829.3,5.00,0.00,30.0,28.9,00.0,38.8,31.9,23.8,0000.0,0009.59,0006.08,0005.76
2022-08-01 13:05:00,,0829.3,4.99,0.00,30.0,29.0,00.0,38.8,31.9,23.8,0000.0,0009.98,0006.09,0005.77
2022-08-01 13:06:00,,0829.3,5.01,0.00,30.0,29.0,00.0,38.8,31.9,23.7,0000.0,0009.78,0006.09,0005.77
2022-08-01 13:07:00,,0829.3,4.99,0.00,30.1,29.0,00.0,38.8,32.0,23.8,0000.0,0009.53,0006.11,0005.78
2022-08-01 13:08:00,,0829.2,5.01,0.00,30.1,29.1,00.0,38.8,32.0,23.7,0000.0,0009.65,0006.16,0005.80
2022-08-01 13:09:00,,0829.3,5.01,0.00,30.1,29.1,00.0,38.8,32.0,23.7,0000.0,0009.72,0006.17,0005.82
2022-08-01 13:10:00,,0829.3,5.00,0.00,30.1,28.7,00.0,38.8,32.0,23.6,0000.0,0009.70,0006.17,0005.84
2022-08-01 13:11:00,,0829.3,5.00,0.00,30.1,28.1,00.0,38.8,31.9,23.6,0000.0,0009.64,0006.17,0005.83
2022-08-01 13:12:00,,0829.3,5.01,0.00,30.0,27.9,00.0,38.8,31.8,23.7,0000.0,0009.59,0006.17,0005.82
2022-08-01 13:13:00,,0829.2,4.99,0.00,29.9,27.9,00.0,38.8,31.7,23.8,0000.0,0009.61,0006.15,0005.80
2022-08-01 13:14:00,,0829.2,4.99,0.00,29.9,28.0,00.0,38.7,31.7,23.9,0000.0,0009.51,0006.11,0005.77
2022-08-01 13:15:00,,0829.3,5.00,0.00,29.9,28.1,00.0,38.7,31.7,23.9,0000.0,0009.54,0006.10,0005.75
2022-08-01 13:16:00,,0829.3,5.00,0.00,29.9,28.2,00.0,38.7,31.7,23.5,0000.0,0009.16,0006.06,0005.71
2022-08-01 13:17:00,,0829.3,5.00,0.00,29.9,28.3,00.0,38.7,31.7,23.7,0000.0,0008.86,0006.00,0005.68
2022-08-01 13:18:00,,0829.3,5.00,0.00,29.9,28.4,00.0,38.7,31.7,24.4,0000.0,0009.19,0005.94,0005.64
2022-08-01 13:19:00,,0829.3,5.00,0.00,29.9,28.5,00.0,38.7,31.7,23.9,0000.0,0008.90,0005.85,0005.60
2022-08-01 13:20:00,,0829.2,5.00,0.00,29.9,28.6,00.0,38.7,31.7,23.6,0000.0,0008.82,0005.81,0005.56
2022-08-01 13:21:00,,0829.2,5.00,0.00,29.9,28.7,00.0,38.7,31.8,23.4,0000.0,0009.23,0005.76,0005.50
2022-08-01 13:22:00,,0829.2,4.99,0.00,29.9,28.7,00.0,38.7,31.8,23.6,0000.0,0009.48,0005.74,0005.48
2022-08-01 13:23:00,,0829.2,5.01,0.00,29.9,28.8,00.0,38.7,31.8,24.8,0000.0,0009.94,0005.72,0005.46
2022-08-01 13:24:00,,0829.2,5.01,0.00,30.0,28.9,00.0,38.7,31.9,24.5,0000.0,0010.06,0005.71,0005.44
2022-08-01 13:25:00,,0829.2,4.99,0.00,30.0,28.9,00.0,38.8,31.9,24.3,0000.0,0010.14,0005.71,0005.43
2022-08-01 13:26:00,,0829.2,5.01,0.00,30.0,29.0,00.0,38.8,31.9,25.1,0000.0,0010.46,0005.70,0005.43
2022-08-01 13:27:00,,0829.2,5.00,0.00,30.0,29.0,00.0,38.8,32.0,26.3,0000.0,0010.74,0005.76,0005.44
2022-08-01 13:28:00,,0829.4,5.00,0.00,30.1,28.8,00.0,38.8,31.9,26.6,0000.0,0011.59,0005.84,0005.45
2022-08-01 13:29:00,,0829.3,5.01,0.00,30.0,28.0,00.0,38.8,31.7,26.3,0000.0,0011.60,0005.91,0005.48
2022-08-01 13:30:00,,0829.2,4.99,0.00,29.9,27.4,00.0,38.7,31.6,26.9,0000.0,0011.68,0005.95,0005.49
2022-08-01 13:31:00,,0829.2,5.00,0.00,29.9,27.4,00.0,38.7,31.6,26.9,0000.0,0012.05,0006.01,0005.50
2022-08-01 13:32:00,,0829.2,5.01,0.00,29.8,27.5,00.0,38.7,31.5,27.5,0000.0,0012.21,0006.04,0005.51
2022-08-01 13:33:00,,0829.3,5.00,0.00,29.8,27.6,00.0,38.6,31.5,28.1,0000.0,0011.98,0006.04,0005.51
2022-08-01 13:34:00,,0829.3,5.00,0.00,29.7,27.7,00.0,38.6,31.5,27.6,0000.0,0011.53,0006.03,0005.51
2022-08-01 13:35:00,,0829.3,5.00,0.00,29.7,27.9,00.0,38.6,31.5,26.6,0000.0,0011.45,0006.05,0005.51
2022-08-01 13:36:00,,0829.3,5.00,0.00,29.7,28.1,00.0,38.6,31.5,26.7,0000.0,0011.47,0006.07,0005.52
2022-08-01 13:37:00,,0829.3,5.00,0.00,29.7,28.2,00.0,38.6,31.6,25.6,0000.0,0011.58,0006.09,0005.54
2022-08-01 13:38:00,,0829.4,5.00,0.00,29.7,28.3,00.0,38.6,31.6,26.6,0000.0,0011.41,0006.03,0005.54
2022-08-01 13:39:00,,0829.3,5.00,0.00,29.8,28.4,00.0,38.6,31.6,26.7,0000.0,0010.54,0005.99,0005.55
2022-08-01 13:40:00,,0829.4,5.00,0.00,29.8,28.5,00.0,38.6,31.7,26.6,0000.0,0010.03,0005.94,0005.54
2022-08-01 13:41:00,,0829.5,5.01,0.00,29.8,28.6,00.0,38.6,31.7,26.3,0000.0,0009.99,0005.90,0005.52
2022-08-01 13:42:00,,0829.5,4.98,0.00,29.8,28.7,00.0,38.6,31.7,25.5,0000.0,0009.94,0005.88,0005.51
2022-08-01 13:43:00,,0829.5,5.01,0.00,29.8,28.7,00.0,38.6,31.7,25.5,0000.0,0009.23,0005.84,0005.50
2022-08-01 13:44:00,,0829.5,5.01,0.00,29.9,28.8,00.0,38.6,31.7,24.9,0000.0,0009.06,0005.82,0005.49
2022-08-01 13:45:00,,0829.4,4.99,0.00,29.9,28.9,00.0,38.7,31.8,25.5,0000.0,0009.10,0005.83,0005.49
2022-08-01 13:46:00,,0829.5,5.00,0.00,29.9,28.9,00.0,38.7,31.9,26.0,0000.0,0009.02,0005.81,0005.49
2022-08-01 13:47:00,,0829.5,5.00,0.00,29.9,29.0,00.0,38.7,31.9,25.7,0000.0,0008.97,0005.82,0005.49
2022-08-01 13:48:00,,0829.5,4.99,0.00,30.0,29.0,00.0,38.7,31.9,24.4,0000.0,0008.74,0005.82,0005.48
2022-08-01 13:49:00,,0829.5,5.01,0.00,30.0,29.1,00.0,38.7,31.9,24.6,0000.0,0008.65,0005.83,0005.48
2022-08-01 13:50:00,,0829.5,5.00,0.00,30.0,28.8,00.0,38.7,31.9,24.1,0000.0,0008.99,0005.82,0005.47
2022-08-01 13:51:00,,0829.5,5.00,0.00,30.0,28.1,00.0,38.7,31.7,24.5,0000.0,0009.63,0005.83,0005.47
2022-08-01 13:52:00,,0829.4,5.00,0.00,29.9,27.6,00.0,38.7,31.7,25.0,0000.0,0009.64,0005.85,0005.48
2022-08-01 13:53:00,,0829.5,5.00,0.00,29.9,27.6,00.0,38.6,31.5,23.9,0000.0,0009.71,0005.85,0005.48
2022-08-01 13:54:00,,0829.5,5.00,0.00,29.8,27.7,00.0,38.6,31.5,24.0,0000.0,0009.90,0005.86,0005.48
2022-08-01 13:55:00,,0829.4,5.01,0.00,29.8,27.8,00.0,38.6,31.5,24.3,0000.0,0009.93,0005.89,0005.49
2022-08-01 13:56:00,,0829.5,5.00,0.00,29.8,27.9,00.0,38.6,31.5,24.4,0000.0,0009.85,0005.88,0005.51
2022-08-01 13:57:00,,0829.5,5.01,0.00,29.7,28.1,00.0,38.6,31.6,23.7,0000.0,0009.89,0005.90,0005.52
2022-08-01 13:58:00,,0829.5,4.99,0.00,29.8,28.2,00.0,38.6,31.6,25.8,0000.0,0009.83,0005.87,0005.51
2022-08-01 13:59:00,,0829.5,5.01,0.00,29.8,28.3,00.0,38.6,31.7,26.1,0000.0,0009.71,0005.85,0005.50
